Location: *
(51.5000°N, 0.1100°W)
Time: 16:03:20
(UTC+00:00)

ATLAS 2AS CENTAUR R/B - Pass Details

Date: 25 May 2024
Orbit: 1017 x 1194 km, 63.7° (Epoch: 16 June)

Event Time Altitude Azimuth Distance (km) Brightness Sun altitude
Rises 01:50:11 0° 314° (NW) 3,924 5.9 -13.4°
Reaches altitude 10° 01:52:55 10° 316° (NW) 2,938 5.2 -13.2°
Maximum altitude 01:59:52 75° 42° (NE) 1,092 2.9 -12.7°
Drops below altitude 10° 02:06:31 10° 128° (SE) 2,822 4.8 -12.2°
Sets 02:09:06 0° 130° (SE) 3,760 5.5 -12.0°
